{"data":{"norad_id":62854,"epoch":"2026-09-21T09:53:05.865216Z","epoch_age_seconds":89472,"freshness":"FRESH","line1":"1 62854U 25022A   26264.41187344  .00010561  00000+0  32328-3 0  9991","line2":"2 62854  53.1599 295.7131 0000836 107.9800 252.1294 15.34396320 92742","mean_motion":15.3439632,"eccentricity":8.36e-5,"inclination_deg":53.1599,"raan_deg":295.7131,"arg_perigee_deg":107.98,"mean_anomaly_deg":252.1294,"bstar":0.00032328,"rev_number":9274,"period_min":93.847983159918,"perigee_km":462.14228280601,"apogee_km":463.28607312297,"semimajor_km":6840.8511779645,"source":"CELESTRAK","updated_at":"2026-09-22T09:00:49.675466Z"}}